Location: Arthurs Seat
(13.1500°N, 59.6000°W)
Time: 23:57:32
(UTC+00:00)

Unknown - Pass Details

Date: 25 August 2019
Orbit: 443 x 445 km, 53.0° (Epoch: 18 October)

Event Time Altitude Azimuth Distance (km) Brightness Sun altitude
Rises 22:47:55 0° 330° (NNW) 2,428 7.6 -8.9°
Reaches altitude 10° 22:50:03 10° 335° (NNW) 1,558 6.5 -9.4°
Maximum altitude 22:53:30 55° 54° (NE) 534 3.3 -10.2°
Enters shadow 22:56:27 13° 131° (SE) 1,362 5.1 -10.9°
